DW7061 Weather Reports


Display with metric or nautical units.
time (UTC)temp
F
wind
direction
speed
MPH
gust
MPH
rain 1hr
in
rain 24hr
in
rain mn
in
humidity
%
barometer
mb
20260505204017 76 225 2.0 9.0 0.00 0.00 0.00 47 1005.4
20260505203038 76 248 4.0 10.0 0.00 0.00 0.00 47 1005.4
20260505202017 76 270 3.0 11.0 0.00 0.00 0.00 47 1005.4
20260505201018 76 248 4.0 15.0 0.00 0.00 0.00 47 1005.5
20260505200017 77 248 3.0 7.0 0.00 0.00 0.00 46 1005.7
20260505195038 78 225 3.0 8.0 0.00 0.00 0.00 44 1005.6
20260505194017 79 248 3.0 9.0 0.00 0.00 0.00 45 1005.8
20260505193038 78 248 3.0 11.0 0.00 0.00 0.00 45 1006.0
20260505192017 78 248 5.0 12.0 0.00 0.00 0.00 45 1005.9
20260505191017 78 248 5.0 13.0 0.00 0.00 0.00 44 1006.0
20260505190038 78 248 4.0 15.0 0.00 0.00 0.00 43 1006.1
20260505185018 79 248 4.0 12.0 0.00 0.00 0.00 43 1006.3
20260505184017 79 248 3.0 10.0 0.00 0.00 0.00 44 1006.5
20260505183017 79 248 4.0 9.0 0.00 0.00 0.00 44 1006.6
20260505182018 78 248 4.0 9.0 0.00 0.00 0.00 43 1006.6
20260505181018 78 248 5.0 13.0 0.00 0.00 0.00 44 1006.7
20260505180018 78 248 2.0 7.0 0.00 0.00 0.00 46 1006.9
20260505175017 78 225 4.0 13.0 0.00 0.00 0.00 46 1007.0
20260505174018 78 248 2.0 7.0 0.00 0.00 0.00 46 1007.0
20260505173017 77 270 4.0 12.0 0.00 0.00 0.00 47 1007.2
20260505172018 76 225 4.0 12.0 0.00 0.00 0.00 46 1007.4
20260505171038 76 248 3.0 8.0 0.00 0.00 0.00 47 1007.4
20260505170017 77 248 3.0 10.0 0.00 0.00 0.00 46 1007.4
20260505165018 76 248 3.0 10.0 0.00 0.00 0.00 48 1007.6
20260505164018 76 248 2.0 14.0 0.00 0.00 0.00 49 1007.8
20260505163017 75 270 2.0 7.0 0.00 0.00 0.00 50 1008.0
20260505162017 75 248 3.0 6.0 0.00 0.00 0.00 50 1008.3
20260505161017 75 248 3.0 7.0 0.00 0.00 0.00 49 1008.5
20260505153018 73 113 1.0 4.0 0.00 0.00 0.00 51 1008.8
20260505152017 71 248 2.0 5.0 0.00 0.00 0.00 54 1008.9
20260505151018 70 248 2.0 8.0 0.00 0.00 0.00 53 1009.0
20260505125018 58 248 1.0 4.0 0.00 0.00 0.00 75 1009.2
20260505124017 56 0.0 3.0 0.00 0.00 0.00 78 1009.1
20260505123037 56 248 1.0 4.0 0.00 0.00 0.00 80 1009.1
20260505122018 55 203 1.0 4.0 0.00 0.00 0.00 82 1009.1
20260505121017 54 248 2.0 8.0 0.00 0.00 0.00 83 1009.1
20260505120017 53 248 1.0 3.0 0.00 0.00 0.00 83 1009.1
20260505115017 53 225 1.0 4.0 0.00 0.00 0.00 83 1009.3
20260505114017 53 225 1.0 7.0 0.00 0.00 0.00 84 1009.5
20260505113038 53 248 1.0 4.0 0.00 0.00 0.00 84 1009.6
20260505112017 53 248 2.0 7.0 0.00 0.00 0.00 84 1009.3
20260505111017 52 225 1.0 4.0 0.00 0.00 0.00 84 1009.3
20260505102017 51 270 1.0 3.0 0.00 0.00 0.00 84 1008.6
20260505101017 51 248 1.0 4.0 0.00 0.00 0.00 83 1008.5
20260505100017 51 225 1.0 4.0 0.00 0.00 0.00 83 1008.5
20260505095059 51 248 1.0 4.0 0.00 0.00 0.00 83 1008.6
20260505094017 51 248 1.0 3.0 0.00 0.00 0.00 83 1008.6
20260505093018 51 158 1.0 6.0 0.00 0.00 0.00 82 1008.7
20260505092017 51 0.0 3.0 0.00 0.00 0.00 82 1008.7
20260505091017 51 248 1.0 3.0 0.00 0.00 0.00 82 1008.8
20260505090017 51 248 1.0 5.0 0.00 0.00 0.00 82 1008.8
20260505085037 51 248 1.0 7.0 0.00 0.00 0.00 81 1008.8
20260505084017 51 225 1.0 6.0 0.00 0.00 0.00 81 1008.9
20260505083038 51 248 2.0 6.0 0.00 0.00 0.00 81 1008.9
20260505082017 51 225 1.0 6.0 0.00 0.00 0.00 80 1009.0
20260505081037 51 225 1.0 3.0 0.00 0.00 0.00 80 1009.1
20260505080018 51 248 1.0 4.0 0.00 0.00 0.00 79 1009.2
20260505075018 51 0.0 2.0 0.00 0.00 0.00 78 1009.1
20260505074017 52 0.0 2.0 0.00 0.00 0.00 78 1009.2
20260505073017 52 0.0 2.0 0.00 0.00 0.00 77 1009.2
20260505072017 52 225 1.0 4.0 0.00 0.00 0.00 77 1009.3
20260505071018 52 248 1.0 2.0 0.00 0.00 0.00 77 1009.4
20260505070017 52 225 1.0 4.0 0.00 0.00 0.00 77 1009.2
20260505065017 52 0.0 2.0 0.00 0.00 0.00 77 1009.3
20260505064018 52 0.0 2.0 0.00 0.00 0.00 77 1009.4
20260505063017 52 248 1.0 3.0 0.00 0.00 0.00 78 1009.5
20260505062017 51 0.0 2.0 0.00 0.00 0.00 78 1009.5
20260505061018 51 0.0 5.0 0.00 0.00 0.00 78 1009.6
20260505060017 51 180 1.0 5.0 0.00 0.00 0.00 78 1009.7
20260505055017 51 0.0 1.0 0.00 0.00 0.00 79 1009.8
20260505054018 51 0.0 2.0 0.00 0.00 0.00 79 1009.7
20260505053017 51 0.0 2.0 0.00 0.00 0.00 78 1009.7
20260505052017 51 0.0 1.0 0.00 0.00 0.00 78 1009.9
20260505051017 51 0.0 3.0 0.00 0.00 0.00 78 1009.9
20260505041038 52 248 1.0 5.0 0.00 0.00 0.00 76 1009.8
20260505040019 52 248 1.0 5.0 0.00 0.00 0.00 76 1009.8
20260505035016 52 248 1.0 5.0 0.00 0.00 0.00 75 1009.7
20260505034017 52 248 1.0 3.0 0.00 0.00 0.00 75 1009.5
20260505033017 52 248 1.0 4.0 0.00 0.00 0.00 74 1009.5
20260505032016 53 225 1.0 5.0 0.00 0.00 0.00 73 1009.5
20260505031016 53 248 1.0 5.0 0.00 0.00 0.00 72 1009.4
20260505030016 53 270 1.0 4.0 0.00 0.00 0.00 71 1009.4
20260505025016 54 248 1.0 4.0 0.00 0.00 0.00 70 1009.2
20260505024016 54 248 1.0 5.0 0.00 0.00 0.00 69 1009.3
20260505023016 54 248 1.0 6.0 0.00 0.00 0.00 68 1009.3
20260505022036 55 248 1.0 4.0 0.00 0.00 0.00 67 1009.4
20260505021016 55 248 1.0 3.0 0.00 0.00 0.00 66 1009.3
20260505020016 55 248 1.0 5.0 0.00 0.00 0.00 65 1009.2
20260505015056 56 248 2.0 6.0 0.00 0.00 0.00 64 1009.3
20260505014016 56 248 1.0 5.0 0.00 0.00 0.00 63 1009.3
20260505013016 57 248 1.0 5.0 0.00 0.00 0.00 62 1009.2
20260505012017 57 248 1.0 9.0 0.00 0.00 0.00 61 1009.0
20260505011016 57 248 1.0 5.0 0.00 0.00 0.00 60 1008.8
20260505010017 58 248 2.0 6.0 0.00 0.00 0.00 59 1008.7
20260505005016 58 248 1.0 4.0 0.00 0.00 0.00 58 1008.6
20260505004016 59 225 2.0 8.0 0.00 0.00 0.00 57 1008.3
20260505003016 59 248 1.0 4.0 0.00 0.00 0.00 56 1008.2
20260505002016 60 248 2.0 6.0 0.00 0.00 0.00 55 1008.1
20260505001016 60 248 2.0 5.0 0.00 0.00 0.00 54 1007.8
20260505000037 61 225 2.0 6.0 0.00 0.00 0.00 53 1007.6
20260504235037 61 248 1.0 5.0 0.00 0.00 0.00 52 1007.5
20260504234036 62 270 1.0 5.0 0.00 0.00 0.00 50 1007.3
20260504233016 64 203 2.0 10.0 0.00 0.00 0.00 45 1007.2
20260504232017 65 248 1.0 4.0 0.00 0.00 0.00 41 1006.9
20260504231016 65 0.0 1.0 0.00 0.00 0.00 40 1006.8
20260504230016 65 225 2.0 10.0 0.00 0.00 0.00 40 1006.7
20260504225016 66 248 2.0 7.0 0.00 0.00 0.00 39 1006.7
20260504224016 66 248 3.0 15.0 0.00 0.00 0.00 39 1006.6
20260504223016 66 248 2.0 6.0 0.00 0.00 0.00 39 1006.6
20260504222016 66 248 3.0 8.0 0.00 0.00 0.00 38 1006.7
20260504221017 67 225 3.0 11.0 0.00 0.00 0.00 38 1006.7
20260504220016 67 248 1.0 5.0 0.00 0.00 0.00 38 1006.7
20260504215016 67 248 3.0 7.0 0.00 0.00 0.00 38 1006.9
20260504214016 68 225 2.0 5.0 0.00 0.00 0.00 38 1006.7
20260504213016 68 248 2.0 8.0 0.00 0.00 0.00 37 1006.9
20260504212017 67 248 3.0 6.0 0.00 0.00 0.00 37 1006.9
20260504211015 67 248 2.0 8.0 0.00 0.00 0.00 38 1006.9
20260504210016 67 248 3.0 9.0 0.00 0.00 0.00 38 1007.0
20260504205015 68 248 3.0 9.0 0.00 0.00 0.00 36 1007.0